Regional Weather Roundup
Issued by NWS Albany, NY

Home | Current Version | Previous Version | Text Only | Print | Product List | Glossary On
Versions: 1 2 3 4 5 6 7 8 9 10 11 12 13 14 15 16 17 18 19 20 21 22 23 24 25 26 27 28 29 30 31 32 33 34 35 36 37 38 39 40 41 42 43 44 45 46 47 48 49 50
000
ASUS41 KALY 220910
RWRALY

NEW YORK STATE HOURLY WEATHER ROUNDUP
NATIONAL WEATHER SERVICE ALBANY NY
500 AM EDT FRI AUG 22 2014

NOTE: "FAIR" INDICATES FEW OR NO CLOUDS BELOW 12,000 FEET WITH NO
SIGNIFICANT WEATHER AND/OR NO OBSTRUCTIONS TO VISIBILITY.

NYZ032-033-038>043-046>054-057>066-NYZ062>081-221000-
EAST


CITY           SKY/WX    TMP DP  RH WIND       PRES   REMARKS
ALBANY         CLOUDY    66  64  93 SE5       30.01F
GLENS FALLS    CLOUDY    63  60  90 NE6       30.03S
POUGHKEEPSIE   CLOUDY    67  63  87 SE3       30.01S
NEWBURGH       CLOUDY    64  64 100 CALM      30.04S
MONTGOMERY     MOCLDY    63  62  97 CALM      30.02S FOG
WHITE PLAINS   CLOUDY    66  64  93 NE3       30.02S
ISLIP          CLOUDY    66  64  94 NE6       30.01R
NEW YORK CITY  CLOUDY    68  65  90 E5        30.00F
CENTRAL PARK   CLOUDY    67  64  90 VRB3      30.03F FOG
$$

NYZ005>009-017-018-044>046-055-056-221000-
CENTRAL


CITY           SKY/WX    TMP DP  RH WIND       PRES   REMARKS
FULTON         CLOUDY    66  64  93 CALM      29.97R
SYRACUSE       FOG       63  63 100 CALM      29.97S VSB 3/4
ROME           PTCLDY    65  64  97 SE6       29.99S
ELMIRA         FOG       63  63 100 CALM      29.99S VSB 1/4
BINGHAMTON     FOG       60  60 100 CALM      30.01F VSB 1/4
MONTICELLO     CLOUDY    63  63 100 SE5       30.05S
$$

NYZ026>034-041>043-221000-
NORTH


CITY           SKY/WX    TMP DP  RH WIND       PRES   REMARKS
WATERTOWN      CLOUDY    65  61  87 CALM      29.98R
FORT DRUM      NOT AVBL
MASSENA        PTCLDY    62  62 100 NE3       30.00S
SARANAC LAKE   FOG       59  59 100 NE7       30.02S VSB 1/2
PLATTSBURGH    CLOUDY    63  61  93 S5        30.03S
$$

NYZ001>004-010>016-019>021-221000-
WEST


CITY           SKY/WX    TMP DP  RH WIND       PRES   REMARKS
NIAGARA FALLS  CLEAR     64  62  93 N5        29.95F
BUFFALO        MOCLDY    67  64  90 CALM      29.96F
DUNKIRK        CLEAR     65  64  97 CALM      29.95F FOG
JAMESTOWN      CLOUDY    64  64 100 CALM      30.00F VSB 1/4
WELLSVILLE     FOG       63  61  93 CALM      30.03F VSB 1/2
ROCHESTER      PTCLDY    64  63  96 CALM      29.96F FOG
PENN YAN       PTCLDY    65  63  93 S3        29.98F
$$

             KEY
       WCI = WIND CHILL INDEX
       VSB = VISIBILITY
       HX  = HEAT INDEX
$$


USA.gov is the U.S. government's official web portal to all federal, state and local government web resources and services.